Hagerstown, MD

4:35 AM EST on November 20, 2019 (GMT -0500)
Hagerstown Regional-Henson

Weather History for KHGR - September, 2019

Change the Weather History Date:

Tuesday, September 10, 2019

  Actual Average Record
Temperature  
Mean Temperature 74 °F 68 °F  
Max Temperature 85 °F 77 °F 94 °F (2016)
Min Temperature 62 °F 59 °F 48 °F (2017)
Degree Days  
Heating Degree Days 0 1  
Month to date heating degree days 0 5  
Since 1 July heating degree days 0 10  
Cooling Degree Days 9 4  
Month to date cooling degree days 84 50  
Year to date cooling degree days 1293 918  
Growing Degree Days 24 (Base 50)    
Moisture  
Dew Point 62 °F    
Average Humidity 69    
Maximum Humidity 90    
Minimum Humidity 48    
Precipitation  
Precipitation 0.00 in 0.11 in 0.54 in (2015)
Month to date precipitation 0.05 0.99  
Year to date precipitation 28.42 27.62  
Sea Level Pressure  
Sea Level Pressure 30.29 in    
Wind  
Wind Speed 7 mph (SSE)    
Max Wind Speed 17 mph    
Max Gust Speed 23 mph    
Visibility 10 miles    
Events      
T = Trace of Precipitation, MM = Missing Value Source: NWS Daily Summary

Daily Weather History Graph

Daily Weather History Graph

Search for Another Location

Airport or City:

Astronomy

Sep. 10, 2019 Rise Set
Actual Time 6:47 AM EDT 7:28 PM EDT
Civil Twilight 6:19 AM EDT 7:55 PM EDT
Nautical Twilight 5:47 AM EDT 8:27 PM EDT
Astronomical Twilight 5:14 AM EDT 9:00 PM EDT
Moon 6:02 PM EDT (9/10) 3:12 AM EDT (9/10)
Length of Visible Light 13h 35m
Length of Day
12h 40m
Waxing Gibbous, 89% of the Moon is Illuminated
Sep 10
Waxing Gibbous
Sep 14
Full
Sep 21
Last Quarter
Sep 28
New
Oct 5
First Quarter

Hourly Weather History & Observations

Time (EDT) Temp. Heat Index Dew Point Humidity Pressure Visibility Wind Dir Wind Speed Gust Speed Precip Events Conditions
12:53 AM 64.9 °F - 59.0 °F 81% 30.27 in 10.0 mi Calm Calm - N/A   Clear
1:53 AM 66.0 °F - 59.0 °F 78% 30.29 in 9.0 mi Calm Calm - N/A   Clear
2:53 AM 66.9 °F - 59.0 °F 76% 30.28 in 10.0 mi ENE 4.6 mph - N/A   Mostly Cloudy
3:53 AM 64.0 °F - 59.0 °F 84% 30.29 in 9.0 mi Calm Calm - N/A   Partly Cloudy
4:53 AM 64.0 °F - 57.9 °F 80% 30.30 in 9.0 mi NW 3.5 mph - N/A   Clear
5:53 AM 66.0 °F - 59.0 °F 78% 30.30 in 10.0 mi Variable 3.5 mph - N/A   Mostly Cloudy
6:53 AM 63.0 °F - 57.9 °F 84% 30.32 in 7.0 mi Calm Calm - N/A   Scattered Clouds
7:53 AM 63.0 °F - 59.0 °F 87% 30.34 in 7.0 mi Calm Calm - N/A   Scattered Clouds
8:53 AM 68.0 °F - 61.0 °F 78% 30.35 in 8.0 mi Calm Calm - N/A   Mostly Cloudy
9:53 AM 72.0 °F - 64.0 °F 76% 30.34 in 10.0 mi South 9.2 mph - N/A   Overcast
10:53 AM 75.0 °F - 64.9 °F 71% 30.35 in 10.0 mi South 10.4 mph - N/A   Mostly Cloudy
11:53 AM 78.1 °F - 64.0 °F 62% 30.34 in 10.0 mi South 11.5 mph - N/A   Scattered Clouds
12:53 PM 80.1 °F 81.7 °F 64.0 °F 58% 30.31 in 10.0 mi SE 11.5 mph - N/A   Partly Cloudy
1:53 PM 82.0 °F 83.4 °F 64.0 °F 54% 30.30 in 10.0 mi SSE 13.8 mph 20.7 mph N/A   Mostly Cloudy
2:53 PM 82.9 °F 84.4 °F 64.0 °F 53% 30.30 in 10.0 mi South 13.8 mph - N/A   Mostly Cloudy
3:53 PM 82.9 °F 84.0 °F 63.0 °F 51% 30.28 in 10.0 mi South 10.4 mph - N/A   Partly Cloudy
4:53 PM 82.9 °F 84.0 °F 63.0 °F 51% 30.27 in 10.0 mi SSE 11.5 mph - N/A   Clear
5:53 PM 84.0 °F 84.5 °F 62.1 °F 47% 30.27 in 10.0 mi South 11.5 mph - N/A   Clear
6:53 PM 82.0 °F 83.1 °F 63.0 °F 52% 30.26 in 10.0 mi SSE 9.2 mph - N/A   Clear
7:53 PM 79.0 °F - 63.0 °F 58% 30.25 in 10.0 mi SSE 8.1 mph - N/A   Clear
8:53 PM 77.0 °F - 63.0 °F 62% 30.25 in 10.0 mi SE 8.1 mph - N/A   Clear
9:53 PM 75.9 °F - 63.0 °F 64% 30.25 in 10.0 mi SSE 8.1 mph - N/A   Clear
10:53 PM 75.0 °F - 63.0 °F 66% 30.25 in 10.0 mi South 9.2 mph - N/A   Clear
11:53 PM 73.9 °F - 64.0 °F 71% 30.26 in 10.0 mi South 9.2 mph - N/A   Clear